sat.trackr.live / text

‹ back to catalog

STARLINK-30106

NORAD 56288 · 2023-056C

PAYLOAD ACTIVE UNKNOWN

§ Identity

Operator
Country
US
Launch date
2023-04-19
Launch site
AFETR
Launch vehicle
Mass (kg)
RCS (m²)

Purposes: comms

External: N2YO · Heavens-Above · Gunter

§ Orbital elements

Epoch: 2026-05-25T00:25:32.837088Z

Period
94.27 min
Inclination
43.0008°
Eccentricity
0.0000701
Mean motion
15.27572730 rev/d
Perigee alt
482.6 km
Apogee alt
483.6 km
Semi-major
6,861.2 km
B*
-9.2607e-5
RAAN
137.8451°
Arg perigee
245.5448°
Mean anomaly
114.5331°
Rev number
17,171

§ Raw data

STARLINK-301061 56288U 23056C   26145.01774117 -.00002809  00000+0 -92607-4 0  99992 56288  43.0008 137.8451 0000701 245.5448 114.5331 15.27572730171719

JSON: /api/v1/satellites/56288 · /tle

For live sub-satellite position, see the globe view (requires WebGL).

§ Visibility from observer

Set your observer location to see the next 7 days of passes ≥ 10°. The values pass through the URL so the page stays shareable.

No JS? Fill the form by hand. The geolocation button needs JavaScript.